Regional Weather Roundup
Issued by NWS

Home | Current Version | Previous Version | Text Only | Print | Product List | Glossary On
Versions: 1 2 3 4 5 6 7 8 9 10 11 12 13 14 15 16 17 18 19 20 21 22 23 24 25 26 27 28 29 30 31 32 33 34 35 36 37 38 39 40 41 42 43 44 45 46 47 48 49 50
000
ASUS44 KMEG 030300
RWRTN
TENNESSEE HOURLY STATE WEATHER ROUNDUP
NATIONAL WEATHER SERVICE MEMPHIS TN
1000 PM CDT MON MAY 02 2016

TNZ002-004-019-021-049-052-054-088>092-030400-
WEST TENNESSEE

CITY           SKY/WX    TMP DP  RH WIND       PRES   REMARKS
MEMPHIS INTL   MOCLDY    62  56  80 CALM      30.00R
NWS MEMPHIS      N/A     58 N/A N/A MISG        N/A
JACKSON        CLOUDY    61  56  83 N5        29.99R
DYERSBURG      CLOUDY    61  55  82 CALM        N/A
UNION CITY     CLOUDY    57  54  88 N8        30.00R
LEXINGTON      MOCLDY    57  57 100 CALM      29.98S
$$

TNZ008-025-027-028-033-062-065-066-030400-
NORTH MIDDLE TENNESSEE

CITY           SKY/WX    TMP DP  RH WIND       PRES   REMARKS
NASHVILLE      CLOUDY    60  56  86 CALM      29.98R
CLARKSVILLE    CLOUDY    59  53  80 N8        29.99R
COOKEVILLE     CLOUDY    63  61  94 NW3       29.95R
CROSSVILLE     CLOUDY    63  57  81 W5        29.98R
$$

TNZ061-075-076-078-094-096-097-030400-
SOUTH MIDDLE TENNESSEE

CITY           SKY/WX    TMP DP  RH WIND       PRES   REMARKS
TULLAHOMA      CLOUDY    61  61 100 NW3       29.97S
WINCHESTER     CLOUDY    63  61  94 CALM      29.96R
MCMINNVILLE    MOCLDY    63  63 100 NW3       29.96R
COLUMBIA       CLOUDY   N/A N/A N/A CALM      29.97R
SHELBYVILLE    CLOUDY    61  61 100 N3        29.97S
$$

TNZ017-018-042-046-047-030400-
NORTHEAST TENNESSEE

CITY           SKY/WX    TMP DP  RH WIND       PRES   REMARKS
TRI CITIES     CLOUDY    60  58  92 CALM      29.96S
$$

TNZ012-013-036-069-073-074-030400-
CENTRAL EAST TENNESSEE

CITY           SKY/WX    TMP DP  RH WIND       PRES   REMARKS
KNOXVILLE      CLOUDY    61  60  97 CALM      29.92F
OAK RIDGE      CLOUDY    61  59  93 CALM      29.94F
GATLINBURG     CLEAR     61  61 100 CALM      29.92F
$$

TNZ083-085-099-030400-
SOUTHEAST TENNESSEE

CITY           SKY/WX    TMP DP  RH WIND       PRES   REMARKS
CHATTANOOGA    CLOUDY    66  63  90 CALM      29.93S
$$

SKY/WX REPORTED AS FAIR MEANS FEW OR NO CLOUDS BELOW
12 THOUSAND FEET.




USA.gov is the U.S. government's official web portal to all federal, state and local government web resources and services.